Tillbaka till svenska Fidonet
English   Information   Debug  
FILM   0/18
FNEWS_PUBLISH   4708
FN_SYSOP   42000
FN_SYSOP_OLD1   71952
FTP_FIDO   0/2
FTSC_PUBLIC   0/13896
FUNNY   0/4886
GENEALOGY.EUR   0/71
GET_INFO   105
GOLDED   0/408
HAM   5737/16254
HOLYSMOKE   0/6791
HOT_SITES   0/1
HTMLEDIT   0/71
HUB203   466
HUB_100   264
HUB_400   39
HUMOR   0/29
IC   0/2851
INTERNET   0/424
INTERUSER   0/3
IP_CONNECT   719
JAMNNTPD   0/233
JAMTLAND   0/47
KATTY_KORNER   0/41
LAN   0/16
LINUX-USER   0/19
LINUXHELP   0/1155
LINUX   0/22257
LINUX_BBS   0/957
mail   18.68
mail_fore_ok   249
MENSA   0/341
MODERATOR   0/102
MONTE   0/992
MOSCOW_OKLAHOMA   0/1245
MUFFIN   0/783
MUSIC   0/321
N203_STAT   938
N203_SYSCHAT   313
NET203   321
NET204   69
NET_DEV   0/10
NORD.ADMIN   0/101
NORD.CHAT   0/2572
NORD.FIDONET   189
NORD.HARDWARE   0/28
NORD.KULTUR   0/114
NORD.PROG   0/32
NORD.SOFTWARE   0/88
NORD.TEKNIK   0/58
NORD   0/453
OCCULT_CHAT   0/93
OS2BBS   0/787
OS2DOSBBS   0/580
OS2HW   0/42
OS2INET   0/37
OS2LAN   0/134
OS2PROG   0/36
OS2REXX   0/113
OS2USER-L   207
OS2   0/4806
OSDEBATE   0/18996
PASCAL   0/490
PERL   0/457
PHP   0/45
POINTS   0/405
POLITICS   0/29554
POL_INC   0/14731
PSION   103
R20_ADMIN   1129
R20_AMATORRADIO   0/2
R20_BEST_OF_FIDONET   14
R20_CHAT   0/893
R20_DEPP   0/3
R20_DEV   399
R20_ECHO2   1623
R20_ECHOPRES   0/35
R20_ESTAT   0/719
R20_FIDONETPROG...
...RAM.MYPOINT
  0/2
R20_FIDONETPROGRAM   0/22
R20_FIDONET   0/248
R20_FILEFIND   0/24
R20_FILEFOUND   0/22
R20_HIFI   0/3
R20_INFO2   3514
R20_INTERNET   0/12940
R20_INTRESSE   0/60
R20_INTR_KOM   0/99
R20_KANDIDAT.CHAT   42
R20_KANDIDAT   28
R20_KOM_DEV   112
R20_KONTROLL   7943/13360
R20_KORSET   0/18
R20_LOKALTRAFIK   0/24
R20_MODERATOR   0/1852
R20_NC   76
R20_NET200   245
R20_NETWORK.OTH...
...ERNETS
  0/13
R20_OPERATIVSYS...
...TEM.LINUX
  0/44
R20_PROGRAMVAROR   0/1
R20_REC2NEC   534
R20_SFOSM   0/341
R20_SF   0/108
R20_SPRAK.ENGLISH   0/1
R20_SQUISH   107
R20_TEST   2
R20_WORST_OF_FIDONET   20
RAR   0/9
RA_MULTI   106
RA_UTIL   0/162
REGCON.EUR   0/2066
REGCON   0/13
SCIENCE   0/1206
SF   0/239
SHAREWARE_SUPPORT   0/5146
SHAREWRE   0/14
SIMPSONS   0/169
STATS_OLD1   0/2539.065
STATS_OLD2   0/2530
STATS_OLD3   0/2395.095
STATS_OLD4   0/1692.25
SURVIVOR   0/495
SYSOPS_CORNER   0/3
SYSOP   0/84
TAGLINES   0/112
TEAMOS2   0/4530
TECH   0/2617
TEST.444   0/105
TRAPDOOR   0/19
TREK   0/755
TUB   0/290
UFO   0/40
UNIX   0/1316
USA_EURLINK   0/102
USR_MODEMS   0/1
VATICAN   2385/2740
VIETNAM_VETS   0/14
VIRUS   0/378
VIRUS_INFO   0/201
VISUAL_BASIC   0/473
WHITEHOUSE   0/5187
WIN2000   0/101
WIN32   0/30
WIN95   0/4291
WIN95_OLD1   0/70272
WINDOWS   0/1517
WWB_SYSOP   0/419
WWB_TECH   0/810
ZCC-PUBLIC   0/1
ZEC   4

 
4DOS   0/134
ABORTION   0/7
ALASKA_CHAT   0/506
ALLFIX_FILE   0/1313
ALLFIX_FILE_OLD1   0/7997
ALT_DOS   0/152
AMATEUR_RADIO   0/1039
AMIGASALE   0/14
AMIGA   0/331
AMIGA_INT   0/1
AMIGA_PROG   0/20
AMIGA_SYSOP   0/26
ANIME   0/15
ARGUS   0/924
ASCII_ART   0/340
ASIAN_LINK   0/651
ASTRONOMY   0/417
AUDIO   0/92
AUTOMOBILE_RACING   0/105
BABYLON5   0/17862
BAG   135
BATPOWER   0/361
BBBS.ENGLISH   0/382
BBSLAW   0/109
BBS_ADS   0/5290
BBS_INTERNET   0/507
BIBLE   0/3563
BINKD   0/1119
BINKLEY   0/215
BLUEWAVE   0/2173
CABLE_MODEMS   0/25
CBM   0/46
CDRECORD   0/66
CDROM   0/20
CLASSIC_COMPUTER   0/378
COMICS   0/15
CONSPRCY   0/899
COOKING   38962
COOKING_OLD1   0/24719
COOKING_OLD2   0/40862
COOKING_OLD3   0/37489
COOKING_OLD4   0/35496
COOKING_OLD5   9370
C_ECHO   0/189
C_PLUSPLUS   0/31
DIRTY_DOZEN   0/201
DOORGAMES   0/2138
DOS_INTERNET   0/196
duplikat   6101
ECHOLIST   0/18295
EC_SUPPORT   0/318
ELECTRONICS   0/359
ELEKTRONIK.GER   1534
ENET.LINGUISTIC   0/13
ENET.POLITICS   0/4
ENET.SOFT   0/11701
ENET.SYSOP   34187
ENET.TALKS   0/32
ENGLISH_TUTOR   0/2000
EVOLUTION   0/1335
FDECHO   0/217
FDN_ANNOUNCE   0/7068
FIDONEWS   24649
FIDONEWS_OLD1   0/49742
FIDONEWS_OLD2   0/35949
FIDONEWS_OLD3   0/30874
FIDONEWS_OLD4   0/37224
FIDO_SYSOP   12899
FIDO_UTIL   0/180
FILEFIND   0/209
FILEGATE   0/212
Möte HAM, 16254 texter
 lista första sista föregående nästa
Text 4449, 908 rader
Skriven 2011-04-22 00:31:18 av Amsat List (1:323/120.0)
Ärende: [keps]  orb11111.amsa
=============================
[keps]  orb11111.amsa

Return-Path: <keps-bounces@amsat.org>
X-Rcpt: craig.healy@chowda.com
X-UIDL: 1303446320.1896

SB KEPS @ AMSAT  $ORB11111.O
Orbital Elements  11111.OSCAR

HR AMSAT ORBITAL ELEMENTS FOR OSCAR SATELLITES
FROM WA5QGD FORT WORTH,TX April 21, 2011
Send Subscribe/unsubscribe to KEPS at http://www.amsat.org/mailman/listinfo/kep
BID: ORB11111.O
TO ALL RADIO AMATEURS BT

Satellite: AO-07
Catalog number: 07530
Epoch time:      11111.65345798
Element set:      59
Inclination:      101.3933 deg
RA of node:       120.4251 deg
Eccentricity:    0.0012047
Arg of perigee:   031.0721 deg
Mean anomaly:     329.1061 deg
Mean motion:   12.53582118 rev/day
Decay rate:       -2.7e-07 rev/day^2
Epoch rev:           66710
Checksum:              250

Satellite: FO-29
Catalog number: 24278
Epoch time:      11111.85318537
Element set:     555
Inclination:      098.5380 deg
RA of node:       263.5937 deg
Eccentricity:    0.0351251
Arg of perigee:   043.3432 deg
Mean anomaly:     319.4781 deg
Mean motion:   13.52959964 rev/day
Decay rate:        1.0e-07 rev/day^2
Epoch rev:           72484
Checksum:              321

Satellite: SO-33
Catalog number: 25509
Epoch time:      11111.55479851
Element set:     949
Inclination:      031.4312 deg
RA of node:       204.6151 deg
Eccentricity:    0.0353177
Arg of perigee:   106.3788 deg
Mean anomaly:     257.5959 deg
Mean motion:   14.28387204 rev/day
Decay rate:       2.80e-06 rev/day^2
Epoch rev:           65217
Checksum:              312

Satellite: RS-22
Catalog number: 27939
Epoch time:      11111.82045709
Element set:     187
Inclination:      097.8537 deg
RA of node:       328.4943 deg
Eccentricity:    0.0013817
Arg of perigee:   159.1980 deg
Mean anomaly:     200.9791 deg
Mean motion:   14.63559240 rev/day
Decay rate:       3.32e-06 rev/day^2
Epoch rev:           40409
Checksum:              317

Satellite: VO-52
Catalog number: 28650
Epoch time:      11110.57177283
Element set:    0774
Inclination:      097.6471 deg
RA of node:       156.2653 deg
Eccentricity:    0.0026794
Arg of perigee:   353.1577 deg
Mean anomaly:     006.9276 deg
Mean motion:   14.82010910 rev/day
Decay rate:      1.080e-05 rev/day^2
Epoch rev:           32221
Checksum:              295

Satellite: SO-67
Catalog number: 35870
Epoch time:      11111.76019581
Element set:     763
Inclination:      097.2864 deg
RA of node:       156.9885 deg
Eccentricity:    0.0001673
Arg of perigee:   175.6264 deg
Mean anomaly:     277.7028 deg
Mean motion:   15.20571927 rev/day
Decay rate:      1.907e-05 rev/day^2
Epoch rev:            8836
Checksum:              343

Satellite: HO-68
Catalog number: 36122
Epoch time:      11111.68880745
Element set:     305
Inclination:      100.4212 deg
RA of node:       173.3434 deg
Eccentricity:    0.0007403
Arg of perigee:   357.0616 deg
Mean anomaly:     003.0449 deg
Mean motion:   13.16285399 rev/day
Decay rate:       -4.5e-07 rev/day^2
Epoch rev:            6480
Checksum:              270

/EX
SB KEPS @ AMSAT  $ORB11111.D
Orbital Elements  11111.MICROS

HR AMSAT ORBITAL ELEMENTS FOR THE MICROSATS
FROM WA5QGD FORT WORTH,TX April 21, 2011
Send Subscribe/unsubscribe to KEPS at http://www.amsat.org/mailman/listinfo/kep
BID: ORB11111.D
TO ALL RADIO AMATEURS BT

Satellite: UO-11
Catalog number: 14781
Epoch time:      11110.73791940
Element set:    0532
Inclination:      098.0118 deg
RA of node:       167.6137 deg
Eccentricity:    0.0008611
Arg of perigee:   331.4440 deg
Mean anomaly:     028.6298 deg
Mean motion:   14.79943364 rev/day
Decay rate:       5.90e-06 rev/day^2
Epoch rev:           45729
Checksum:              306

Satellite: AO-16
Catalog number: 20439
Epoch time:      11110.86300373
Element set:    0175
Inclination:      098.3789 deg
RA of node:       062.4127 deg
Eccentricity:    0.0010895
Arg of perigee:   338.9558 deg
Mean anomaly:     021.1173 deg
Mean motion:   14.31911995 rev/day
Decay rate:       1.00e-06 rev/day^2
Epoch rev:           10941
Checksum:              286

Satellite: LO-19
Catalog number: 20442
Epoch time:      11110.88162530
Element set:    0092
Inclination:      098.3420 deg
RA of node:       067.0059 deg
Eccentricity:    0.0011683
Arg of perigee:   331.7670 deg
Mean anomaly:     028.2874 deg
Mean motion:   14.32138490 rev/day
Decay rate:        9.2e-07 rev/day^2
Epoch rev:           10959
Checksum:              281

Satellite: AO-27
Catalog number: 22825
Epoch time:      11111.44870784
Element set:     798
Inclination:      098.5278 deg
RA of node:       057.0861 deg
Eccentricity:    0.0009394
Arg of perigee:   084.1109 deg
Mean anomaly:     276.1129 deg
Mean motion:   14.29341020 rev/day
Decay rate:       2.27e-06 rev/day^2
Epoch rev:           91608
Checksum:              312

Satellite: IO-26
Catalog number: 22826
Epoch time:      11110.96860966
Element set:    0556
Inclination:      098.5218 deg
RA of node:       057.1091 deg
Eccentricity:    0.0009885
Arg of perigee:   077.7126 deg
Mean anomaly:     282.5163 deg
Mean motion:   14.29601542 rev/day
Decay rate:        8.8e-07 rev/day^2
Epoch rev:           91613
Checksum:              322

Satellite: GO-32
Catalog number: 25397
Epoch time:      11111.52834509
Element set:     460
Inclination:      098.3240 deg
RA of node:       107.1285 deg
Eccentricity:    0.0002239
Arg of perigee:   081.1327 deg
Mean anomaly:     279.0110 deg
Mean motion:   14.23204307 rev/day
Decay rate:       -6.0e-08 rev/day^2
Epoch rev:           66390
Checksum:              259

